Dewpoint
55 53 52 48 46 46 47 48 50 50 47 48 47 48 48 49 49 50 51 50 50 48 47 47 45 43 42 42 44 41 40 39
49 50 49 47 45 43 45 48 51 49 46 45 46 46 48 49 50 51 51 50 50 49 46 44 43 42 43 43 41 40 36 38
48 48 47 47 45 44 45 46 47 46 47 46 47 48 48 49 50 50 50 50 50 46 46 42 42 37 39 40 39 35 33 36
46 46 46 46 45 45 45 46 46 46 49 48 48 49 49 48 47 46 46 45 45 44 40 39 38 35 34 36 36 36 31 32
44 44 45 46 47 47 47 47 46 47 48 48 48 46 45 47 46 45 43 42 39 37 37 37 37 34 36 34 33 36 35 31
42 44 45 45 47 48 49 47 46 47 48 49 48 47 48 46 45 45 44 40 35 33 36 37 37 33 35 35 36 36 34 32
43 45 46 45 46 48 48 47 46 48 49 49 49 50 48 45 45 43 39 35 30 34 33 35 35 34 34 34 36 36 35 33
44 45 44 45 46 48 48 46 46 48 50 50 51 50 48 47 43 40 37 32 28 33 33 33 32 33 34 34 34 34 33 33
44 46 45 45 47 48 48 46 47 48 49 48 48 47 43 41 39 35 32 29 29 32 32 31 32 31 32 33 31 31 33 33
45 45 47 47 47 49 49 47 47 48 48 46 45 44 41 38 36 34 29 30 21 30 30 30 30 30 30 31 29 30 31 32
44 45 48 48 48 49 50 49 48 47 46 45 43 41 39 36 34 31 30 31 29 28 27 28 28 28 28 29 29 28 28 30
45 46 47 49 49 49 50 49 48 47 45 43 42 39 37 33 30 29 29 30 27 25 24 25 25 25 26 27 28 25 27 28
45 46 46 48 48 49 49 49 46 46 44 42 41 38 34 30 29 28 30 27 26 23 23 23 23 24 25 26 25 26 27 27
45 45 45 46 47 47 46 46 45 43 41 41 39 35 31 30 29 27 26 25 24 24 23 24 24 25 24 25 24 25 26 27
45 45 45 45 46 46 44 45 43 41 38 38 36 32 29 28 28 26 25 24 22 23 24 25 26 24 23 22 22 25 26 25
44 44 44 44 45 44 43 42 41 39 36 32 32 32 28 27 27 25 23 23 21 22 22 23 24 23 16 22 21 23 24 23
43 43 43 43 43 42 40 41 38 37 31 30 29 29 26 26 27 26 24 23 23 23 22 22 23 18 24 22 22 21 21 22
43 43 43 43 43 41 40 38 38 33 30 28 27 27 25 25 25 23 22 23 24 23 23 23 23 23 23 21 21 20 21 22
42 44 44 43 43 41 39 38 34 33 30 28 26 26 24 23 23 22 23 23 22 22 22 23 22 19 23 20 20 20 21 20
Lifted_Index
-0 0 2 3 5 6 7 7 7 7 8 7 7 7 7 7 7 7 8 8 8 9 9 10 10 11 11 11 11 11 11 10
1 2 3 4 6 7 7 7 7 7 7 7 7 7 7 7 7 7 8 8 9 9 10 10 11 11 12 12 12 12 12 11
2 3 4 5 6 7 7 7 7 6 6 7 7 7 7 7 7 8 9 9 10 10 11 12 13 13 13 13 14 13 13 13
3 4 4 5 6 6 6 6 6 7 6 7 7 7 6 7 8 9 9 10 11 12 13 14 14 15 15 15 15 15 14 14
4 4 4 5 5 6 6 6 6 7 6 6 6 6 6 7 8 9 10 11 12 14 15 15 16 16 16 16 16 15 15 15
4 4 4 4 5 5 6 6 6 6 6 6 6 6 6 7 8 9 10 12 13 15 16 16 16 16 17 16 16 16 15 15
3 3 3 4 4 5 5 6 6 6 6 6 5 6 6 7 8 9 11 12 14 16 16 16 17 17 17 17 16 16 15 15
2 3 3 3 4 4 5 6 6 6 6 6 6 6 7 8 9 10 11 13 15 17 17 17 17 17 17 17 16 16 16 16
2 2 2 3 3 4 5 5 5 6 6 6 7 7 8 8 9 10 12 14 16 17 17 18 17 17 17 17 17 16 16 16
1 1 2 2 3 3 4 5 5 6 6 7 7 8 8 8 9 11 14 16 18 18 18 18 18 18 18 17 17 17 17 17
1 1 1 2 2 3 4 4 5 6 7 7 8 8 8 9 11 14 16 17 18 18 18 18 18 18 18 18 18 17 17 17
1 1 1 2 2 3 3 4 5 6 7 8 8 9 10 11 14 16 17 18 19 19 19 19 19 19 19 18 18 18 18 18
1 1 2 2 2 3 4 4 5 6 8 8 9 10 11 14 16 17 18 19 19 19 19 19 19 19 19 19 19 18 18 18
1 2 2 3 3 3 4 5 6 7 8 9 10 11 13 15 17 18 19 19 19 19 19 19 19 19 19 19 19 19 19 18
2 2 3 3 3 4 5 5 6 7 8 9 10 12 14 16 18 19 19 20 19 19 19 19 19 19 20 20 20 19 19 19
2 3 3 3 4 4 5 5 6 6 7 9 11 12 15 17 18 19 19 20 19 19 19 19 19 19 20 20 20 20 20 19
2 3 3 4 4 4 5 5 6 6 8 9 11 12 14 16 18 19 19 19 19 19 19 19 19 19 20 20 20 20 20 19
2 3 3 4 4 4 5 5 6 7 8 10 11 12 13 16 18 19 19 19 19 19 19 19 19 19 20 20 20 20 20 19
2 3 3 4 4 4 5 6 6 7 8 10 11 11 13 16 18 18 19 18 18 18 19 19 19 19 19 20 20 20 20 19